| time (UTC) | temp F | wind direction | speed MPH | gust MPH | rain 1hr in | rain 24hr in | rain mn in | humidity % | barometer mb |
| 20260509021513 | 62 | 211 | 0.0 | 0.0 | 0.00 | 0.11 | 0.09 | 72 | 1012.3 |
| 20260509020149 | 62 | 211 | 0.0 | 0.0 | 0.00 | 0.11 | 0.09 | 72 | 1012.2 |
| 20260509014619 | 62 | 211 | 0.0 | 0.0 | 0.00 | 0.12 | 0.09 | 72 | 1012.3 |
| 20260509013010 | 63 | 211 | 0.0 | 0.0 | 0.00 | 0.12 | 0.09 | 71 | 1012.0 |
| 20260509011550 | 63 | 211 | 0.0 | 0.0 | 0.00 | 0.12 | 0.09 | 70 | 1012.0 |
| 20260509010018 | 64 | 211 | 0.0 | 0.0 | 0.00 | 0.12 | 0.09 | 69 | 1011.8 |
| 20260509004539 | 64 | 211 | 0.0 | 0.0 | 0.00 | 0.13 | 0.09 | 68 | 1011.8 |
| 20260509003001 | 65 | 211 | 0.0 | 0.0 | 0.01 | 0.13 | 0.09 | 66 | 1011.8 |
| 20260509001624 | 65 | 211 | 0.0 | 0.0 | 0.01 | 0.13 | 0.09 | 66 | 1011.8 |
| 20260509000058 | 66 | 211 | 0.0 | 0.0 | 0.01 | 0.13 | 0.09 | 64 | 1011.7 |
| 20260508234636 | 66 | 211 | 0.0 | 2.0 | 0.01 | 0.15 | 0.09 | 63 | 1011.6 |
| 20260508233047 | 66 | 211 | 0.0 | 2.0 | 0.01 | 0.15 | 0.09 | 62 | 1011.4 |
| 20260508231522 | 67 | 211 | 0.0 | 2.0 | 0.00 | 0.14 | 0.08 | 61 | 1011.6 |
| 20260508230055 | 67 | 211 | 0.0 | 2.0 | 0.00 | 0.14 | 0.08 | 61 | 1011.7 |
| 20260508224533 | 67 | 195 | 0.0 | 1.0 | 0.00 | 0.16 | 0.08 | 60 | 1011.5 |
| 20260508223009 | 68 | 205 | 0.0 | 2.0 | 0.00 | 0.16 | 0.08 | 57 | 1011.5 |
| 20260508221532 | 68 | 196 | 0.0 | 2.0 | 0.00 | 0.16 | 0.08 | 57 | 1011.4 |
| 20260508220002 | 68 | 196 | 0.0 | 1.0 | 0.00 | 0.16 | 0.08 | 56 | 1011.4 |
| 20260508214621 | 68 | 192 | 0.0 | 2.0 | 0.00 | 0.19 | 0.08 | 55 | 1011.4 |
| 20260508213153 | 69 | 251 | 0.0 | 2.0 | 0.00 | 0.19 | 0.08 | 54 | 1011.4 |
| 20260508211527 | 69 | 221 | 0.0 | 1.0 | 0.01 | 0.19 | 0.08 | 57 | 1011.4 |
| 20260508210104 | 69 | 220 | 0.0 | 2.0 | 0.01 | 0.19 | 0.08 | 53 | 1011.7 |
| 20260508204527 | 70 | 160 | 0.0 | 3.0 | 0.01 | 0.22 | 0.08 | 56 | 1011.4 |
| 20260508203002 | 70 | 306 | 0.0 | 2.0 | 0.01 | 0.22 | 0.08 | 52 | 1011.7 |
| 20260508201528 | 70 | 152 | 0.0 | 2.0 | 0.01 | 0.22 | 0.08 | 50 | 1011.9 |
| 20260508200126 | 71 | 215 | 0.0 | 2.0 | 0.00 | 0.21 | 0.07 | 51 | 1011.9 |
| 20260508194509 | 71 | 219 | 0.0 | 2.0 | 0.00 | 0.25 | 0.07 | 48 | 1012.4 |
| 20260508193105 | 71 | 199 | 0.0 | 2.0 | 0.01 | 0.25 | 0.07 | 51 | 1012.5 |
| 20260508191624 | 70 | 178 | 0.0 | 2.0 | 0.01 | 0.25 | 0.07 | 49 | 1012.7 |
| 20260508190115 | 70 | 181 | 0.0 | 2.0 | 0.01 | 0.25 | 0.07 | 48 | 1013.0 |
| 20260508184637 | 70 | 230 | 0.0 | 1.0 | 0.01 | 0.27 | 0.07 | 50 | 1013.1 |
| 20260508183102 | 70 | 229 | 0.0 | 2.0 | 0.00 | 0.26 | 0.06 | 49 | 1013.3 |
| 20260508181516 | 69 | 159 | 0.0 | 3.0 | 0.00 | 0.26 | 0.06 | 52 | 1013.6 |
| 20260508180015 | 69 | 246 | 0.0 | 4.0 | 0.00 | 0.26 | 0.06 | 51 | 1013.6 |
| 20260508174514 | 68 | 199 | 0.0 | 2.0 | 0.00 | 0.28 | 0.06 | 54 | 1013.9 |
| 20260508173011 | 67 | 298 | 0.0 | 2.0 | 0.00 | 0.28 | 0.06 | 52 | 1014.0 |
| 20260508171509 | 67 | 153 | 0.0 | 2.0 | 0.00 | 0.28 | 0.06 | 53 | 1014.4 |
| 20260508170158 | 67 | 198 | 0.0 | 2.0 | 0.00 | 0.28 | 0.06 | 54 | 1014.5 |
| 20260508164514 | 66 | 191 | 0.0 | 2.0 | 0.00 | 0.30 | 0.06 | 54 | 1014.8 |
| 20260508163016 | 66 | 238 | 0.0 | 4.0 | 0.00 | 0.30 | 0.06 | 54 | 1014.9 |
| 20260508161514 | 65 | 248 | 0.0 | 4.0 | 0.00 | 0.30 | 0.06 | 55 | 1015.2 |
| 20260508160007 | 64 | 223 | 0.0 | 2.0 | 0.00 | 0.30 | 0.06 | 56 | 1015.3 |
| 20260508154505 | 63 | 171 | 0.0 | 2.0 | 0.00 | 0.32 | 0.06 | 56 | 1015.4 |
| 20260508153012 | 63 | 219 | 0.0 | 3.0 | 0.00 | 0.32 | 0.06 | 56 | 1015.6 |
| 20260508151501 | 62 | 163 | 0.0 | 2.0 | 0.01 | 0.32 | 0.06 | 58 | 1015.7 |
| 20260508150112 | 62 | 163 | 0.0 | 2.0 | 0.01 | 0.32 | 0.06 | 59 | 1015.7 |
| 20260508144545 | 61 | 163 | 0.0 | 2.0 | 0.01 | 0.35 | 0.06 | 63 | 1015.7 |
| 20260508143036 | 60 | 163 | 0.0 | 2.0 | 0.01 | 0.35 | 0.06 | 65 | 1015.6 |
| 20260508141700 | 59 | 163 | 0.0 | 2.0 | 0.00 | 0.34 | 0.05 | 64 | 1015.6 |
| 20260508140011 | 58 | 225 | 0.0 | 2.0 | 0.00 | 0.34 | 0.05 | 68 | 1015.9 |
| 20260508134556 | 57 | 225 | 0.0 | 1.0 | 0.00 | 0.38 | 0.05 | 77 | 1016.0 |
| 20260508133016 | 56 | 224 | 0.0 | 2.0 | 0.00 | 0.38 | 0.05 | 80 | 1016.0 |
| 20260508131515 | 55 | 224 | 0.0 | 0.0 | 0.00 | 0.38 | 0.05 | 80 | 1016.1 |
| 20260508130014 | 54 | 224 | 0.0 | 0.0 | 0.01 | 0.38 | 0.05 | 81 | 1016.0 |
| 20260508124511 | 53 | 224 | 0.0 | 0.0 | 0.01 | 0.42 | 0.05 | 81 | 1015.5 |
| 20260508123019 | 53 | 250 | 0.0 | 1.0 | 0.01 | 0.42 | 0.05 | 82 | 1015.5 |
| 20260508121507 | 52 | 250 | 0.0 | 0.0 | 0.01 | 0.42 | 0.05 | 86 | 1015.4 |
| 20260508120004 | 51 | 250 | 0.0 | 0.0 | 0.00 | 0.41 | 0.04 | 87 | 1014.9 |
| 20260508114501 | 50 | 250 | 0.0 | 0.0 | 0.00 | 0.47 | 0.04 | 89 | 1014.8 |
| 20260508113105 | 50 | 250 | 0.0 | 0.0 | 0.00 | 0.47 | 0.04 | 89 | 1014.5 |
| 20260508111559 | 50 | 250 | 0.0 | 0.0 | 0.00 | 0.47 | 0.04 | 89 | 1014.3 |
| 20260508104551 | 51 | 250 | 0.0 | 0.0 | 0.00 | 0.52 | 0.04 | 87 | 1013.6 |
| 20260508103050 | 51 | 250 | 0.0 | 0.0 | 0.00 | 0.52 | 0.04 | 86 | 1013.3 |
| 20260508101546 | 51 | 250 | 0.0 | 0.0 | 0.01 | 0.52 | 0.04 | 86 | 1013.1 |
| 20260508100100 | 51 | 250 | 0.0 | 0.0 | 0.01 | 0.52 | 0.04 | 86 | 1012.8 |
| 20260508094544 | 51 | 250 | 0.0 | 2.0 | 0.01 | 0.57 | 0.04 | 86 | 1012.6 |
| 20260508093042 | 51 | 250 | 0.0 | 2.0 | 0.01 | 0.57 | 0.04 | 87 | 1012.5 |
| 20260508091602 | 51 | 250 | 0.0 | 2.0 | 0.00 | 0.56 | 0.03 | 87 | 1012.4 |
| 20260508090043 | 51 | 250 | 0.0 | 0.0 | 0.00 | 0.56 | 0.03 | 85 | 1012.2 |
| 20260508084536 | 52 | 250 | 0.0 | 0.0 | 0.01 | 0.63 | 0.03 | 84 | 1012.1 |
| 20260508083034 | 52 | 250 | 0.0 | 0.0 | 0.01 | 0.63 | 0.03 | 83 | 1012.0 |
| 20260508081540 | 52 | 250 | 0.0 | 0.0 | 0.01 | 0.63 | 0.03 | 83 | 1011.9 |
| 20260508080031 | 52 | 250 | 0.0 | 0.0 | 0.01 | 0.63 | 0.03 | 83 | 1011.9 |
| 20260508074534 | 53 | 250 | 0.0 | 0.0 | 0.00 | 0.69 | 0.02 | 83 | 1012.0 |
| 20260508073027 | 53 | 250 | 0.0 | 0.0 | 0.00 | 0.69 | 0.02 | 83 | 1012.0 |
| 20260508071533 | 53 | 250 | 0.0 | 0.0 | 0.00 | 0.69 | 0.02 | 83 | 1012.0 |
| 20260508070025 | 54 | 250 | 0.0 | 0.0 | 0.00 | 0.69 | 0.02 | 83 | 1011.9 |
| 20260508064528 | 54 | 250 | 0.0 | 0.0 | 0.00 | 0.77 | 0.02 | 83 | 1011.8 |
| 20260508063022 | 54 | 250 | 0.0 | 0.0 | 0.01 | 0.77 | 0.02 | 83 | 1011.7 |
| 20260508061521 | 55 | 250 | 0.0 | 0.0 | 0.01 | 0.77 | 0.02 | 83 | 1011.6 |
| 20260508060025 | 55 | 250 | 0.0 | 0.0 | 0.01 | 0.77 | 0.02 | 82 | 1011.7 |
| 20260508054542 | 56 | 250 | 0.0 | 0.0 | 0.01 | 0.90 | 0.02 | 80 | 1011.8 |
| 20260508053015 | 56 | 250 | 0.0 | 0.0 | 0.00 | 0.89 | 0.01 | 79 | 1011.8 |
| 20260508051512 | 57 | 250 | 0.0 | 0.0 | 0.01 | 0.89 | 0.01 | 77 | 1011.9 |
| 20260508050011 | 57 | 250 | 0.0 | 0.0 | 0.01 | 0.89 | 0.01 | 76 | 1011.7 |
| 20260508044510 | 57 | 250 | 0.0 | 0.0 | 0.01 | 1.00 | 0.01 | 73 | 1011.8 |
| 20260508043006 | 58 | 250 | 0.0 | 0.0 | 0.01 | 1.00 | 0.01 | 70 | 1011.5 |
| 20260508041505 | 58 | 250 | 0.0 | 0.0 | 0.00 | 0.99 | 0.00 | 68 | 1011.4 |
| 20260508034600 | 59 | 250 | 0.0 | 0.0 | 0.01 | 0.99 | 0.99 | 65 | 1011.2 |
| 20260508033057 | 60 | 250 | 0.0 | 0.0 | 0.01 | 0.99 | 0.99 | 64 | 1011.4 |
| 20260508031600 | 60 | 250 | 0.0 | 0.0 | 0.01 | 0.99 | 0.99 | 62 | 1011.3 |
| 20260508030104 | 60 | 250 | 0.0 | 0.0 | 0.01 | 0.98 | 0.98 | 65 | 1011.0 |
| 20260508024604 | 61 | 250 | 0.0 | 0.0 | 0.01 | 1.02 | 0.98 | 62 | 1010.9 |
| 20260508023036 | 61 | 250 | 0.0 | 1.0 | 0.01 | 1.02 | 0.98 | 63 | 1010.7 |